Edinburg, TX

12:32 PM CDT on May 23, 2018 (GMT -0500)
Edinburg

Weather History for KEBG - May, 2013

Change the Weather History Date:

Tuesday, May 28, 2013

  Actual Average (KMFE) Record (KMFE)
Temperature  
Mean Temperature 86 °F -  
Max Temperature 95 °F 93 °F 101 °F (2017)
Min Temperature 78 °F 72 °F 65 °F (1976)
Cooling Degree Days 22    
Growing Degree Days 36 (Base 50)    
Moisture  
Dew Point 71 °F    
Average Humidity 65    
Maximum Humidity 85    
Minimum Humidity 40    
Precipitation  
Precipitation 0.00 in - - ()
Sea Level Pressure  
Sea Level Pressure 29.81 in    
Wind  
Wind Speed 14 mph (SE)    
Max Wind Speed 28 mph    
Max Gust Speed 37 mph    
Visibility 6 miles    
Events      
Averages and records for this station are not official NWS values.
T = Trace of Precipitation, MM = Missing Value Source: NWS Daily Summary

Daily Weather History Graph

Daily Weather History Graph

Search for Another Location

Airport or City:

Astronomy

May. 28, 2013 Rise Set
Actual Time 6:40 AM CDT 8:19 PM CDT
Civil Twilight 6:14 AM CDT 8:45 PM CDT
Nautical Twilight 5:43 AM CDT 9:16 PM CDT
Astronomical Twilight 5:11 AM CDT 9:48 PM CDT
Moon 11:56 PM CDT (5/28) 10:21 AM CDT (5/28)
Length of Visible Light 14h 30m
Length of Day
13h 38m
Waning Gibbous, 82% of the Moon is Illuminated
May 28
Waning Gibbous
May 31
Last Quarter
Jun 8
New
Jun 16
First Quarter
Jun 23
Full

Hourly Weather History & Observations

Time (CDT) Temp. Heat Index Dew Point Humidity Pressure Visibility Wind Dir Wind Speed Gust Speed Precip Events Conditions
12:15 AM 78.1 °F - 72.5 °F 83% 29.90 in 5.0 mi SE 9.2 mph - N/A   Haze
12:35 AM 78.6 °F - 72.9 °F 82% 29.90 in 5.0 mi SE 6.9 mph - N/A   Haze
12:55 AM 78.4 °F - 72.9 °F 83% 29.90 in 5.0 mi SE 6.9 mph - N/A   Haze
1:15 AM 78.3 °F - 73.0 °F 84% 29.90 in 5.0 mi SE 8.1 mph - N/A   Haze
1:35 AM 78.1 °F - 73.2 °F 85% 29.89 in 5.0 mi SE 8.1 mph - N/A   Haze
1:55 AM 78.6 °F - 73.4 °F 84% 29.88 in 7.0 mi SE 11.5 mph - N/A   Scattered Clouds
2:15 AM 78.8 °F - 73.0 °F 82% 29.87 in 5.0 mi SE 11.5 mph 17.3 mph N/A   Haze
2:35 AM 79.0 °F - 73.0 °F 82% 29.87 in 5.0 mi SE 15.0 mph 20.7 mph N/A   Haze
2:55 AM 78.8 °F - 73.0 °F 82% 29.87 in 7.0 mi SE 10.4 mph 18.4 mph N/A   Clear
3:15 AM 78.8 °F - 73.0 °F 82% 29.86 in 7.0 mi SE 10.4 mph - N/A   Clear
3:35 AM 78.8 °F - 73.2 °F 83% 29.85 in 5.0 mi SE 11.5 mph 16.1 mph N/A   Haze
3:55 AM 78.8 °F - 73.2 °F 83% 29.85 in 5.0 mi SE 12.7 mph 17.3 mph N/A   Haze
4:15 AM 78.8 °F - 72.9 °F 82% 29.84 in 7.0 mi SE 13.8 mph 17.3 mph N/A   Clear
4:35 AM 78.8 °F - 72.9 °F 82% 29.84 in 5.0 mi SE 11.5 mph - N/A   Haze
4:55 AM 78.8 °F - 73.0 °F 82% 29.83 in 5.0 mi SSE 10.4 mph 17.3 mph N/A   Haze
5:15 AM 79.0 °F - 73.4 °F 83% 29.83 in 5.0 mi SSE 13.8 mph 18.4 mph N/A   Haze
5:35 AM 79.2 °F - 73.4 °F 82% 29.84 in 7.0 mi SE 12.7 mph 17.3 mph N/A   Scattered Clouds
5:55 AM 79.2 °F - 73.4 °F 82% 29.84 in 5.0 mi SSE 9.2 mph - N/A   Haze
6:15 AM 79.2 °F - 73.4 °F 82% 29.83 in 7.0 mi SSE 12.7 mph 16.1 mph N/A   Mostly Cloudy
6:35 AM 78.8 °F - 73.4 °F 83% 29.83 in 5.0 mi SE 10.4 mph - N/A   Haze
6:55 AM 78.8 °F - 73.4 °F 83% 29.83 in 5.0 mi SE 9.2 mph - N/A   Haze
7:15 AM 78.8 °F - 73.4 °F 83% 29.83 in 4.0 mi SSE 10.4 mph - N/A   Haze
7:35 AM 79.0 °F - 73.4 °F 83% 29.83 in 5.0 mi SSE 11.5 mph 16.1 mph N/A   Haze
7:55 AM 80.4 °F 85.1 °F 73.6 °F 80% 29.83 in 5.0 mi SSE 9.2 mph 12.7 mph N/A   Haze
8:15 AM 81.5 °F 86.7 °F 73.4 °F 76% 29.83 in 5.0 mi SSE 13.8 mph 17.3 mph N/A   Haze
8:35 AM 81.9 °F 86.8 °F 72.5 °F 73% 29.83 in 7.0 mi SSE 12.7 mph 20.7 mph N/A   Scattered Clouds
8:55 AM 83.7 °F 88.9 °F 71.8 °F 67% 29.83 in 7.0 mi SSE 19.6 mph 26.5 mph N/A   Mostly Cloudy
9:15 AM 84.7 °F 89.4 °F 70.5 °F 62% 29.83 in 7.0 mi SSE 20.7 mph 26.5 mph N/A   Scattered Clouds
9:35 AM 85.3 °F 89.4 °F 69.6 °F 59% 29.84 in 7.0 mi SSE 20.7 mph 31.1 mph N/A   Scattered Clouds
9:55 AM 85.8 °F 90.1 °F 69.3 °F 58% 29.83 in 7.0 mi SSE 17.3 mph 24.2 mph N/A   Scattered Clouds
10:15 AM 87.8 °F 91.8 °F 68.5 °F 53% 29.83 in 7.0 mi SSE 16.1 mph 29.9 mph N/A   Scattered Clouds
10:35 AM 88.9 °F 92.2 °F 67.6 °F 49% 29.83 in 5.0 mi South 20.7 mph 29.9 mph N/A   Haze
10:55 AM 89.6 °F 92.6 °F 67.1 °F 47% 29.83 in 7.0 mi SSE 20.7 mph 26.5 mph N/A   Scattered Clouds
11:15 AM 89.4 °F 92.3 °F 66.9 °F 47% 29.83 in 7.0 mi South 20.7 mph 28.8 mph N/A   Scattered Clouds
11:35 AM 91.0 °F 93.8 °F 66.2 °F 44% 29.83 in 7.0 mi South 21.9 mph 29.9 mph N/A   Scattered Clouds
11:55 AM 91.4 °F 94.5 °F 66.9 °F 44% 29.82 in 7.0 mi SSE 18.4 mph 27.6 mph N/A   Scattered Clouds
12:15 PM 91.6 °F 96.2 °F 68.5 °F 47% 29.82 in 7.0 mi SSE 16.1 mph 29.9 mph N/A   Mostly Cloudy
12:35 PM 92.3 °F 97.6 °F 69.3 °F 47% 29.81 in 7.0 mi SE 18.4 mph 29.9 mph N/A   Scattered Clouds
12:55 PM 92.1 °F 96.7 °F 68.5 °F 46% 29.80 in 4.0 mi SSE 23.0 mph 28.8 mph N/A   Haze
1:15 PM 93.6 °F 97.9 °F 67.8 °F 43% 29.80 in 7.0 mi SSE 19.6 mph 31.1 mph N/A   Scattered Clouds
2:15 PM 93.9 °F 97.0 °F 66.4 °F 40% 29.78 in 7.0 mi SSE 19.6 mph 26.5 mph N/A   Scattered Clouds
2:55 PM 94.1 °F 97.9 °F 67.3 °F 41% 29.78 in 10.0 mi SSE 21.9 mph 27.6 mph N/A   Scattered Clouds
3:15 PM 95.0 °F 99.0 °F 67.3 °F 40% 29.77 in 7.0 mi SSE 19.6 mph 31.1 mph N/A   Scattered Clouds
3:35 PM 94.1 °F 98.4 °F 68.0 °F 42% 29.77 in 7.0 mi SE 23.0 mph 29.9 mph N/A   Scattered Clouds
3:55 PM 93.2 °F 97.7 °F 68.2 °F 44% 29.76 in 7.0 mi SE 21.9 mph 32.2 mph N/A   Scattered Clouds
4:15 PM 92.8 °F 96.6 °F 67.5 °F 43% 29.76 in 10.0 mi SE 24.2 mph 36.8 mph N/A   Scattered Clouds
4:35 PM 92.5 °F 96.4 °F 67.5 °F 44% 29.76 in 7.0 mi SSE 24.2 mph 31.1 mph N/A   Scattered Clouds
4:55 PM 91.9 °F 96.4 °F 68.2 °F 46% 29.75 in 7.0 mi SSE 20.7 mph 27.6 mph N/A   Mostly Cloudy
5:15 PM 92.1 °F 96.7 °F 68.7 °F 46% 29.74 in 7.0 mi SE 24.2 mph 32.2 mph N/A   Scattered Clouds
5:35 PM 90.5 °F 95.1 °F 69.1 °F 49% 29.74 in 5.0 mi SE 27.6 mph 33.4 mph N/A   Haze
5:55 PM 90.5 °F 95.1 °F 69.1 °F 49% 29.74 in 7.0 mi SE 21.9 mph 29.9 mph N/A   Scattered Clouds
6:15 PM 89.2 °F 93.6 °F 68.7 °F 51% 29.74 in 7.0 mi SE 23.0 mph 31.1 mph N/A   Scattered Clouds
6:35 PM 89.1 °F 93.3 °F 68.9 °F 51% 29.74 in 7.0 mi SE 25.3 mph 28.8 mph N/A   Scattered Clouds
6:55 PM 88.3 °F 92.8 °F 69.3 °F 53% 29.74 in 7.0 mi SE 23.0 mph 28.8 mph N/A   Scattered Clouds
7:15 PM 87.1 °F 91.6 °F 69.6 °F 56% 29.74 in 5.0 mi SE 23.0 mph 31.1 mph N/A   Haze
7:35 PM 86.0 °F 90.7 °F 70.2 °F 59% 29.75 in 7.0 mi SE 23.0 mph 29.9 mph N/A   Scattered Clouds
7:55 PM 85.1 °F 89.4 °F 69.8 °F 60% 29.75 in 7.0 mi SE 21.9 mph 27.6 mph N/A   Scattered Clouds
8:15 PM 84.4 °F 88.2 °F 69.3 °F 60% 29.77 in 7.0 mi SE 18.4 mph 26.5 mph N/A   Scattered Clouds
8:35 PM 83.7 °F 87.2 °F 69.1 °F 61% 29.77 in 10.0 mi SE 19.6 mph 26.5 mph N/A   Clear
8:55 PM 83.3 °F 87.4 °F 69.8 °F 64% 29.77 in 7.0 mi SE 18.4 mph 25.3 mph N/A   Clear
9:15 PM 82.4 °F 86.7 °F 70.7 °F 68% 29.77 in 7.0 mi SE 17.3 mph 21.9 mph N/A   Scattered Clouds
9:35 PM 82.2 °F 86.6 °F 71.2 °F 69% 29.77 in 7.0 mi SE 21.9 mph 27.6 mph N/A   Mostly Cloudy
9:55 PM 81.7 °F 86.0 °F 71.4 °F 71% 29.77 in 7.0 mi SE 19.6 mph 29.9 mph N/A   Scattered Clouds
10:15 PM 81.5 °F 85.9 °F 71.6 °F 72% 29.77 in 7.0 mi SE 19.6 mph 32.2 mph N/A   Scattered Clouds
10:35 PM 81.1 °F 85.4 °F 71.6 °F 73% 29.77 in 7.0 mi SE 19.6 mph 27.6 mph N/A   Clear
10:55 PM 80.8 °F 84.9 °F 71.8 °F 74% 29.77 in 7.0 mi SE 19.6 mph 26.5 mph N/A   Scattered Clouds
11:15 PM 80.8 °F 84.9 °F 71.8 °F 74% 29.77 in 7.0 mi SE 20.7 mph 27.6 mph N/A   Mostly Cloudy
11:35 PM 81.0 °F 85.2 °F 71.8 °F 74% 29.78 in 7.0 mi SE 19.6 mph 27.6 mph N/A   Mostly Cloudy
11:55 PM 81.1 °F 85.4 °F 71.8 °F 73% 29.78 in 7.0 mi SSE 19.6 mph 28.8 mph N/A   Mostly Cloudy